{"data":{"norad_id":68605,"intl_designator":"2026-073D","name":"STARLINK-37131","alt_names":[],"object_type":"PAYLOAD","status":"ACTIVE","operator":null,"country":"US","launch_date":"2026-04-07","launch_site_code":"AFWTR","launch_vehicle":null,"mission":null,"orbit_class":"UNKNOWN","rcs_meters":null,"size_class":null,"mass_kg":null,"dimensions":null,"purposes":["comms"],"wikipedia_slug":null,"has_3d_model":false,"image_url":null,"decayed_at":null,"tle_current":{"epoch":"2026-05-25T04:00:03.998880Z","epoch_age_seconds":54012,"freshness":"FRESH","line1":"1 68605U 26073D   26145.16671295 -.00000223  00000+0 -24310-5 0  9991","line2":"2 68605  97.2852 344.5942 0002199  90.7993  65.6749 15.49208282  5721","mean_motion":15.49208282,"eccentricity":0.0002199,"inclination_deg":97.2852,"raan_deg":344.5942,"arg_perigee_deg":90.7993,"mean_anomaly_deg":65.6749,"bstar":-2.431e-6,"rev_number":572,"period_min":92.950703706605,"perigee_km":417.54616821202,"apogee_km":420.5355670382,"semimajor_km":6797.1778676251,"source":"CELESTRAK","updated_at":"2026-05-25T13:38:21.966606Z"}}}